RH
13 12 11 10 10 10 12 13 15 14 13 15 14 14 13 11 12 12 11 11 15 21 19 18 19 18 22 28 30 31 31 37 43 44 45 40 37 38 37 37 37 42 42 35 28 24 24 24 25 26 28 29 29 29 30 31 32 34 35 35 32 25 22 22 22 22 23 25 28 30 32 35 34 32 31 30 32 34 35 36 36 36 36 38 42 44 46 48 49 47 47 46 45 42 41 39 38
10 10 9 10 10 10 11 12 16 16 14 16 14 12 12 12 13 12 12 15 21 22 22 23 23 23 24 26 26 30 35 36 38 41 41 38 38 39 39 39 39 43 39 32 26 24 25 26 26 26 28 29 30 30 30 31 32 35 36 36 33 26 23 22 23 23 24 25 28 31 34 36 36 34 33 33 35 36 36 36 36 36 36 37 41 44 46 46 47 47 46 45 44 42 39 35 31
8 8 8 10 10 10 10 12 16 17 16 17 13 10 11 12 13 14 13 18 23 19 21 25 26 31 27 28 27 30 38 37 35 37 39 39 39 41 41 41 40 39 33 28 24 23 26 27 27 27 28 30 31 31 31 32 33 35 36 36 33 27 23 23 24 24 24 26 29 33 35 37 39 38 37 38 38 37 37 37 36 36 36 37 40 43 45 45 46 47 47 46 43 37 31 25 19
6 6 9 10 10 9 10 14 15 15 17 16 12 9 9 12 13 15 15 17 20 17 22 25 27 32 28 30 31 32 39 38 36 36 39 39 39 41 40 39 36 33 29 25 24 24 26 28 29 28 29 30 31 32 32 33 33 35 36 36 33 27 24 24 24 25 25 27 30 33 36 39 42 42 40 40 40 39 39 38 37 36 36 37 40 43 44 44 44 45 46 41 34 28 23 18 14
5 7 9 10 10 10 12 15 14 13 13 12 10 8 9 12 13 15 15 15 17 17 23 26 26 28 26 29 30 34 40 37 36 34 36 38 38 40 39 36 32 29 27 25 25 26 27 28 29 29 30 31 32 32 32 33 34 35 36 36 32 27 24 25 25 26 27 27 30 33 36 39 42 44 43 42 42 40 40 39 38 37 36 37 39 42 42 42 42 42 42 36 29 25 22 18 16
6 7 9 9 9 10 13 16 15 14 11 9 9 7 9 12 14 15 14 14 15 15 20 25 27 26 28 30 29 34 38 37 37 35 35 37 36 38 37 33 29 29 28 26 27 27 29 30 30 30 30 31 32 33 32 33 35 36 37 35 31 27 25 25 26 27 28 28 29 33 36 38 42 45 45 44 43 42 41 40 39 38 36 36 39 42 40 39 39 39 37 32 28 27 24 19 19
6 8 8 9 10 9 12 14 13 13 11 9 9 8 9 11 13 14 13 13 14 16 20 24 25 26 31 33 33 36 38 39 39 36 35 36 36 36 33 29 28 29 28 28 28 29 30 31 30 30 31 32 33 33 32 33 35 36 37 34 30 26 25 26 27 28 29 29 29 32 35 37 40 44 46 45 44 43 42 41 39 39 37 36 40 42 38 34 35 34 31 31 30 28 26 22 22
8 10 9 10 13 11 12 12 10 10 8 7 9 9 10 11 12 12 12 12 13 16 21 24 23 28 35 36 40 41 39 41 41 38 36 37 37 35 32 28 29 30 30 30 31 31 31 31 31 31 32 32 33 33 32 32 34 35 35 33 29 26 26 26 27 29 30 31 30 31 34 36 39 43 47 47 45 43 42 42 40 40 39 37 39 41 37 31 29 28 27 30 33 30 28 28 28
10 12 11 11 14 14 14 13 11 9 7 7 7 8 9 10 10 11 10 11 13 15 22 26 25 31 38 40 44 43 40 42 42 39 38 37 36 35 31 28 32 33 31 32 35 34 31 32 32 32 33 33 33 33 32 32 32 33 33 31 28 27 27 27 27 29 31 32 32 32 33 36 40 43 47 48 45 43 44 43 42 41 43 40 38 40 37 29 26 26 27 30 34 34 33 36 37
11 12 12 12 13 15 16 15 13 10 9 8 8 8 8 9 10 10 9 10 12 16 26 27 27 33 37 41 45 46 44 41 41 41 39 36 34 33 31 31 33 32 31 33 36 35 33 34 34 33 33 33 34 33 32 32 31 32 31 30 28 27 27 28 28 29 31 32 33 32 33 35 39 43 46 49 45 43 45 45 44 43 45 44 38 38 35 29 26 26 27 30 33 36 39 42 43
12 11 11 12 13 15 15 15 13 11 10 9 9 9 8 9 9 10 9 10 10 16 28 28 30 35 37 41 43 44 43 37 38 41 39 36 34 32 31 33 34 32 32 33 35 36 34 36 36 35 35 34 34 34 33 32 31 31 31 31 30 29 29 29 29 30 31 32 33 33 34 35 39 43 47 50 47 45 46 46 45 45 46 44 38 35 34 30 27 27 28 30 32 36 43 46 48
12 12 12 12 13 13 13 13 12 12 11 9 11 11 10 9 8 10 9 10 10 14 23 27 33 37 40 43 41 42 41 37 38 40 39 35 33 33 34 36 37 35 34 33 36 38 37 38 38 37 36 35 35 34 34 33 32 32 32 33 32 32 31 30 30 31 31 32 33 34 35 37 39 42 46 49 48 46 47 47 47 45 43 42 38 34 33 32 29 27 28 30 32 34 42 48 52
13 13 13 13 13 12 12 11 12 13 11 9 11 12 11 8 9 10 8 10 12 15 22 27 31 34 40 45 42 45 45 41 41 40 38 35 34 36 37 38 38 38 36 36 39 40 39 39 38 37 36 35 35 34 34 34 33 33 33 33 34 34 32 32 32 32 32 33 34 35 36 38 40 43 45 48 49 48 48 49 48 44 41 39 39 36 34 34 31 29 29 31 32 34 41 48 53
13 13 13 14 13 12 12 12 12 12 10 10 10 12 9 9 10 9 9 10 13 18 26 28 28 32 42 48 48 49 48 44 42 41 38 35 36 37 38 38 38 39 37 39 42 41 40 41 39 39 37 36 35 34 32 32 33 33 33 33 34 35 34 34 34 34 33 35 36 36 37 40 43 46 45 46 48 48 48 50 48 44 41 39 39 38 36 35 33 30 30 31 32 33 41 47 53
12 13 12 13 13 12 12 13 13 11 10 10 10 12 10 10 10 9 9 11 17 23 29 34 29 31 41 48 53 53 48 44 42 42 39 37 38 39 38 37 37 40 41 43 44 41 43 44 44 43 41 39 36 34 33 33 33 32 32 33 35 36 35 35 36 36 36 36 37 38 39 41 44 46 45 44 45 46 46 47 46 43 41 40 40 40 39 37 35 32 31 31 32 34 40 46 51
13 13 13 13 13 12 12 13 13 12 11 11 11 11 11 11 9 9 9 14 26 27 28 37 32 31 37 41 49 52 46 43 43 43 39 38 39 39 39 39 41 43 45 48 47 46 50 50 47 44 40 38 36 34 34 35 34 34 34 35 36 37 37 36 37 38 39 39 39 39 39 41 42 45 45 42 43 45 43 44 43 42 41 40 41 42 41 40 37 34 32 32 33 34 39 45 50
14 13 14 14 14 13 13 13 13 14 13 12 13 11 12 11 9 9 11 20 33 31 29 35 34 34 38 40 45 48 44 45 46 43 39 38 39 39 41 42 43 46 48 54 59 56 55 55 49 44 41 40 38 36 37 39 39 38 38 38 39 40 39 38 38 40 42 42 41 40 39 40 41 43 44 42 44 45 42 41 41 41 42 41 42 43 43 42 39 36 34 33 33 34 37 44 49
16 15 15 15 14 12 14 14 13 16 15 14 13 12 13 12 11 10 12 23 33 37 39 37 36 37 40 45 48 47 45 47 49 45 41 39 40 41 42 44 47 55 57 63 71 63 57 57 52 48 47 46 43 41 43 44 45 44 44 45 46 45 44 42 41 42 44 44 42 42 42 42 43 44 44 44 46 47 44 42 42 42 43 43 43 44 45 44 42 38 35 34 33 33 36 42 48
17 15 16 14 13 12 14 14 15 18 17 16 15 13 14 14 14 11 15 25 29 35 44 42 41 44 45 48 52 52 49 50 51 46 42 40 41 42 44 49 55 62 64 66 71 66 65 65 60 57 55 52 48 48 51 52 52 53 56 56 54 53 52 49 48 47 47 45 44 44 44 44 45 46 46 46 48 49 46 44 44 44 45 45 45 46 46 45 44 41 38 35 34 34 36 42 47
17 16 17 13 11 13 14 15 17 18 18 18 16 14 14 18 20 17 20 32 34 34 43 46 46 50 50 51 55 56 53 51 50 45 41 40 44 50 50 54 60 64 65 65 64 61 63 65 62 62 60 57 54 55 58 58 57 59 63 62 61 61 61 58 55 55 52 49 49 50 50 51 53 57 56 53 54 54 50 48 46 47 47 47 47 46 47 47 45 43 40 37 36 36 37 42 47
17 16 16 12 11 15 15 16 17 16 17 17 17 15 14 19 24 24 25 36 42 38 40 47 49 51 53 55 58 56 52 51 49 44 40 41 48 53 50 52 62 67 66 65 64 61 60 60 60 61 59 59 59 61 62 60 60 61 63 64 64 66 66 63 61 61 60 56 56 58 59 58 58 64 67 64 61 58 57 54 48 47 48 48 49 48 48 48 47 44 43 40 37 38 39 42 46
19 17 15 13 14 16 16 16 17 15 15 16 16 16 13 15 23 31 33 34 40 41 43 49 51 53 55 57 55 51 50 50 47 41 42 47 49 48 46 47 55 63 64 63 65 67 66 62 63 65 61 60 63 64 63 63 62 61 62 64 65 67 69 68 68 68 67 64 63 65 68 65 61 66 72 72 67 63 62 60 55 52 50 49 50 50 48 48 48 46 45 43 39 39 40 41 44
19 19 16 15 16 16 16 15 16 15 15 16 16 15 13 14 23 35 36 33 36 38 43 51 54 56 56 54 52 50 50 48 44 42 47 49 46 46 47 46 51 59 62 62 66 68 67 64 66 68 61 59 62 63 64 64 62 62 65 66 66 70 72 71 71 71 72 72 69 68 72 73 71 72 74 74 70 67 65 63 62 60 56 51 51 52 50 48 48 47 48 50 48 45 44 44 46
17 18 17 17 18 16 16 16 16 15 15 15 15 14 13 16 22 31 32 33 37 37 38 47 55 59 58 54 52 49 47 44 42 45 50 46 44 47 47 46 49 55 59 62 67 66 63 63 64 63 59 56 58 60 61 61 61 64 67 69 70 73 75 74 73 74 76 77 73 71 73 74 75 76 76 74 69 65 63 62 64 63 62 58 53 52 52 49 47 47 50 55 58 55 52 51 53
17 17 17 18 19 17 16 17 17 16 15 14 15 15 14 16 18 26 32 34 37 37 40 46 53 59 59 55 51 48 45 43 45 51 51 45 44 45 44 45 46 49 53 56 61 61 60 60 59 59 57 55 56 56 55 58 61 63 65 68 70 73 75 76 74 73 75 77 74 72 73 73 74 75 76 72 66 62 60 63 66 65 65 64 60 55 53 52 49 46 48 55 62 62 57 56 58
17 17 17 17 19 19 17 17 18 17 16 14 14 13 14 14 14 22 31 32 33 35 41 47 51 55 57 55 51 48 45 43 48 53 50 44 43 44 45 47 48 47 47 51 58 60 58 56 56 56 55 54 53 53 53 57 61 60 62 64 67 71 73 72 70 69 70 72 73 72 71 69 70 71 71 69 66 62 60 63 68 68 67 66 66 63 57 55 53 50 49 52 59 63 60 58 59
16 17 17 17 18 19 18 18 18 17 16 14 13 12 12 12 13 25 32 31 32 33 40 47 49 52 55 56 53 48 46 46 48 49 47 44 46 48 48 50 52 47 44 48 55 57 55 54 55 54 51 51 50 51 53 55 58 58 59 61 64 67 68 65 65 66 66 67 68 68 66 63 63 65 64 62 63 63 61 62 67 68 67 66 68 70 66 59 57 58 56 53 56 62 61 59 60
15 16 17 17 17 17 17 18 18 18 16 14 13 11 11 10 12 26 32 32 36 34 39 49 50 52 55 57 55 50 48 49 48 47 45 44 47 50 50 52 52 49 46 48 52 55 55 54 53 51 50 50 51 52 53 55 56 57 57 59 62 63 63 62 61 61 62 64 63 61 60 58 58 58 58 58 60 63 63 63 67 68 68 68 67 71 72 66 62 62 61 58 59 65 64 61 61
13 13 14 15 17 16 16 17 17 18 16 13 13 11 11 10 11 25 32 33 37 33 35 46 50 54 58 58 56 52 53 54 53 51 47 46 51 55 53 52 50 48 49 51 54 55 55 54 50 49 51 52 53 53 53 54 55 55 56 58 59 58 57 57 56 55 58 62 62 60 59 58 56 55 57 58 59 63 67 67 67 68 69 70 70 71 74 73 69 64 63 63 64 70 69 63 63
13 13 12 14 17 18 16 16 17 17 15 13 13 13 13 11 12 26 35 33 33 31 32 39 44 53 61 61 57 54 54 56 58 57 53 52 57 60 56 51 48 47 49 52 54 54 56 56 51 50 51 52 53 53 53 54 54 53 54 54 54 53 51 51 52 54 57 60 61 60 59 58 58 57 57 60 62 66 69 69 70 68 69 72 73 74 76 77 74 69 69 70 70 76 76 68 64
13 13 13 13 16 18 17 16 16 16 15 14 14 15 15 13 12 22 33 34 30 29 32 34 39 48 53 56 55 53 51 52 56 57 56 59 60 57 53 50 47 44 48 53 54 54 56 55 52 50 50 51 52 52 53 52 52 52 51 51 50 50 50 52 54 55 57 59 59 61 62 62 62 61 60 62 66 68 70 73 74 70 70 74 76 78 80 81 80 77 77 77 75 78 78 72 67
13 14 14 13 14 16 17 17 16 15 15 15 16 15 13 14 17 20 26 35 34 30 34 34 40 48 48 51 52 48 50 53 56 56 56 60 60 55 48 45 46 45 47 50 51 52 52 51 50 49 48 50 51 51 51 50 50 51 51 52 53 53 52 55 58 58 59 59 57 59 61 62 62 60 60 61 63 67 71 76 77 73 72 75 77 78 82 84 84 82 82 82 82 80 76 73 73
14 14 15 15 14 15 16 17 16 16 16 17 16 14 13 13 18 21 25 37 37 30 35 36 41 50 51 55 54 49 54 59 58 58 58 59 60 59 50 42 44 47 46 47 48 49 48 47 48 48 49 50 51 51 51 50 50 51 54 57 59 57 53 53 57 59 59 56 52 51 50 50 52 53 55 56 58 62 67 72 76 76 76 75 75 76 79 84 85 84 83 84 85 84 77 71 72
18 16 16 15 14 14 15 15 16 16 16 18 16 13 14 14 16 21 27 36 35 31 37 42 47 54 54 54 56 54 55 58 59 60 61 60 61 62 58 48 45 47 47 46 46 44 45 46 48 50 51 50 51 51 51 51 51 53 58 60 59 56 50 48 49 50 51 48 45 44 43 44 46 48 51 52 54 57 61 66 71 75 77 77 76 76 77 81 84 84 83 84 85 86 82 75 70
19 18 16 14 13 14 15 14 15 16 16 18 17 14 16 17 19 23 25 32 34 35 44 50 52 53 50 48 51 54 54 56 60 62 62 62 62 63 62 55 48 47 44 41 41 42 44 46 47 50 50 49 50 51 51 51 52 55 58 57 56 54 49 46 45 43 43 42 41 41 43 43 43 45 49 51 51 54 58 62 65 71 77 78 76 76 77 79 83 85 86 86 86 86 85 81 76
17 18 15 15 14 13 14 15 15 15 16 17 16 17 18 19 24 27 26 33 39 42 50 55 51 48 47 48 51 54 56 58 59 62 63 64 67 65 61 54 48 44 40 39 41 44 46 47 48 49 49 49 49 50 51 51 52 54 53 51 50 49 47 47 46 42 41 41 40 40 41 41 41 43 48 51 49 49 54 58 62 68 75 77 75 74 76 79 81 85 88 88 87 85 84 84 83
16 19 17 16 16 14 14 15 15 15 17 17 17 21 20 22 33 36 31 37 45 45 49 54 51 50 52 53 56 57 58 59 58 61 63 67 70 64 55 50 46 43 40 41 44 45 46 48 49 50 50 49 49 49 50 50 51 50 48 46 45 44 45 47 45 40 38 39 39 40 40 40 41 42 45 49 49 48 49 52 57 64 68 72 72 72 75 79 81 84 89 90 88 85 83 84 86
16 19 19 17 17 16 14 16 18 17 18 18 18 22 21 25 38 45 40 42 49 45 45 54 54 54 57 58 60 58 58 59 60 63 65 68 71 60 50 47 44 42 41 40 42 43 43 45 49 51 51 50 50 49 48 49 48 47 46 45 45 45 46 47 42 35 35 39 42 42 42 43 43 43 43 45 48 49 49 50 52 58 62 65 67 69 74 80 81 83 88 90 89 87 85 85 86
17 19 19 19 18 17 16 17 20 19 19 20 20 22 23 26 40 50 47 46 53 49 47 56 57 59 63 63 63 59 59 64 67 67 67 68 67 57 49 45 42 41 40 39 39 39 40 42 46 49 50 50 49 48 46 46 46 45 45 44 44 45 45 44 39 34 35 40 44 44 44 45 44 43 44 43 44 47 48 49 49 52 56 61 64 65 70 77 80 81 86 90 90 89 89 89 87
18 20 19 19 18 18 18 20 21 19 20 21 21 24 25 32 46 54 48 48 56 53 51 58 61 63 66 66 65 62 61 67 72 70 67 65 61 55 50 46 43 41 39 38 38 38 39 41 43 44 45 45 44 43 42 42 42 41 42 42 42 42 42 42 40 39 39 40 43 44 44 44 42 40 40 41 43 45 47 49 50 49 50 54 59 62 65 72 78 80 83 88 91 91 90 90 89
18 19 19 19 17 19 20 21 21 19 20 22 23 28 31 37 51 54 47 51 59 56 55 60 63 63 65 67 69 69 67 68 71 70 66 63 59 55 50 47 45 41 39 39 38 38 39 40 41 40 40 40 39 38 38 38 38 38 39 40 41 42 43 43 43 44 42 41 43 43 43 42 40 38 37 37 40 43 48 51 53 52 49 50 56 60 62 66 72 77 80 83 87 88 89 89 89
18 19 18 17 17 21 23 22 23 22 23 24 24 34 42 43 52 54 47 50 59 61 60 59 63 64 64 66 66 69 74 74 72 70 66 62 59 54 49 47 47 44 41 40 39 39 40 40 40 39 38 38 38 38 37 37 36 37 39 40 42 43 44 45 46 47 45 44 44 43 43 43 41 39 36 36 38 41 45 50 54 56 54 54 56 59 60 61 63 68 73 78 82 85 87 88 89
18 19 17 17 20 24 25 24 26 27 25 25 24 35 49 49 53 57 51 52 58 61 60 59 63 65 61 60 57 62 72 75 72 69 65 61 57 51 47 47 47 44 43 41 40 41 40 41 41 40 40 40 40 40 39 38 38 38 39 41 42 43 44 47 48 48 48 47 45 44 44 44 43 41 39 38 39 42 45 47 51 53 54 54 55 57 56 56 56 57 62 67 74 80 84 87 90
18 17 16 20 22 23 26 26 27 28 27 26 25 32 46 52 55 56 53 56 61 60 60 60 63 63 60 59 56 57 63 67 67 64 60 59 56 50 46 47 46 43 42 41 41 42 41 42 43 43 43 41 41 42 41 41 40 39 41 42 43 44 46 47 48 49 49 48 48 46 44 43 43 43 42 43 44 46 48 50 50 51 52 52 53 56 58 57 55 54 56 59 65 73 80 85 88
18 16 17 21 23 22 26 28 27 27 26 26 27 33 43 51 55 55 51 54 60 61 60 61 63 61 60 61 59 58 60 63 63 60 56 55 54 50 46 45 44 42 41 41 42 42 42 43 44 44 45 43 42 42 42 42 41 41 42 43 43 44 45 45 47 48 48 48 49 48 45 43 43 43 44 47 48 49 51 53 54 53 53 53 55 59 63 63 60 59 57 57 61 69 78 84 85
18 17 18 18 21 23 25 28 27 27 28 27 28 34 42 50 55 55 54 54 57 58 57 59 63 64 62 62 61 60 60 61 60 58 54 51 49 46 43 43 43 42 41 42 43 42 42 43 44 43 42 41 40 40 41 42 41 41 41 41 42 42 43 44 46 47 46 47 48 47 46 44 45 45 45 48 49 49 52 54 56 56 56 57 58 59 64 67 66 64 62 59 59 66 76 82 84
19 18 18 18 22 24 26 28 25 29 34 29 27 31 36 46 54 54 52 52 54 56 55 57 62 64 64 63 63 60 60 59 58 56 53 48 45 43 41 41 42 43 42 43 43 42 42 43 43 42 40 40 38 38 39 41 41 41 40 40 40 41 42 44 46 48 47 47 47 47 46 45 46 46 46 49 49 49 52 54 55 57 60 60 59 58 61 65 67 67 65 63 62 66 74 81 85
19 19 19 20 25 25 26 27 26 34 38 29 26 27 27 40 55 58 55 53 54 55 56 58 59 60 62 64 64 62 58 55 54 53 50 46 44 42 41 41 41 42 41 41 42 42 42 42 41 41 40 39 38 37 37 38 38 38 38 39 39 40 42 44 46 47 47 47 47 47 47 46 46 46 46 48 49 49 51 53 54 55 58 59 58 58 59 63 68 71 69 65 65 68 74 80 85
21 21 21 23 26 25 26 29 31 36 35 30 28 26 31 51 63 63 62 59 58 57 57 59 59 59 60 61 62 60 55 50 50 52 48 43 43 43 42 42 41 41 41 41 42 41 41 40 40 40 39 37 36 37 37 37 36 36 36 37 38 39 40 41 44 46 46 46 47 47 47 47 46 45 45 47 49 49 49 51 52 52 54 55 56 58 59 62 67 72 73 70 67 67 71 77 81
22 23 24 26 26 26 27 31 34 34 32 31 29 27 44 66 71 66 64 63 64 63 59 60 62 62 63 61 59 57 53 49 49 51 48 42 43 46 44 42 41 41 42 42 40 40 40 40 40 41 40 38 36 34 36 36 36 35 36 35 35 36 36 38 42 45 47 47 47 48 47 46 45 44 44 44 45 46 47 50 50 50 52 54 56 58 61 63 65 69 73 74 71 68 69 72 76
24 22 22 26 26 27 29 31 34 36 33 32 31 36 54 71 73 70 65 64 68 66 62 64 69 69 67 65 62 59 56 53 50 51 48 45 46 47 43 40 41 42 41 40 38 39 40 40 41 42 42 41 37 34 34 34 34 33 34 34 35 36 36 37 40 42 45 47 47 47 45 44 43 43 43 42 42 41 42 45 48 50 51 54 56 60 64 66 65 66 70 73 75 74 71 71 74
25 24 23 24 24 28 30 29 32 35 35 44 53 60 67 72 73 71 67 66 67 66 64 67 73 75 73 72 69 64 61 57 53 51 48 48 48 45 40 39 41 40 39 39 39 40 41 40 41 43 43 42 40 36 33 34 34 34 35 36 36 37 37 38 38 38 40 43 45 45 44 44 43 43 42 41 40 39 38 39 43 47 50 53 56 60 68 71 68 67 70 70 71 73 73 74 77
29 28 26 23 22 28 32 27 30 34 38 55 73 75 75 75 74 72 70 70 68 66 66 67 71 75 74 72 71 68 65 62 57 52 49 50 47 42 40 40 40 39 39 41 41 40 41 41 42 43 42 41 39 36 35 36 36 37 38 38 37 38 38 38 37 36 37 39 41 42 43 43 42 41 41 39 38 38 38 37 40 44 48 51 55 59 68 75 73 70 71 69 67 70 73 73 74
35 30 25 22 23 29 35 30 31 35 40 59 77 77 76 77 76 75 72 72 71 69 70 70 70 72 71 70 69 67 66 64 58 52 49 50 47 43 42 41 40 41 42 44 42 41 42 42 42 42 40 39 38 37 37 37 36 38 40 39 37 36 36 36 35 36 35 35 35 37 39 40 41 40 39 38 37 37 38 37 38 43 46 47 51 57 64 72 76 75 72 70 69 70 72 71 69
32 31 25 25 28 29 31 32 35 35 39 62 80 78 76 77 75 76 76 74 72 69 68 68 68 70 70 69 67 65 64 60 54 52 51 50 47 45 43 43 43 43 44 45 44 43 44 43 41 40 40 39 39 39 39 38 38 39 41 40 37 35 35 37 37 36 35 33 32 33 33 34 36 38 38 38 37 36 36 37 38 41 44 45 49 56 60 65 72 77 76 72 70 70 71 72 72
28 33 29 25 28 28 27 29 35 36 38 60 78 74 72 74 70 71 74 73 72 69 67 66 66 68 69 68 68 66 62 57 54 55 54 50 48 46 46 46 45 45 46 47 47 47 45 43 41 41 41 40 41 41 39 38 39 40 40 40 38 37 38 39 39 38 37 35 34 33 33 33 33 35 38 38 38 37 36 36 36 38 40 43 47 53 58 60 64 71 75 74 71 70 71 72 74
30 36 34 27 25 29 31 30 34 37 40 55 71 70 68 69 66 65 66 67 68 69 68 66 65 67 68 69 69 66 62 59 58 57 55 51 49 48 48 48 47 47 48 48 48 49 47 45 43 43 43 42 41 41 39 38 39 39 40 40 39 39 40 41 42 41 40 39 38 37 37 36 34 35 38 39 39 38 38 37 36 36 37 40 44 49 55 59 60 63 69 72 74 74 74 73 75
31 35 35 31 28 31 36 37 35 34 37 49 62 70 71 68 66 66 64 63 66 67 67 67 67 67 69 70 69 67 64 63 62 60 57 53 51 50 51 51 50 49 49 50 50 49 47 46 44 44 44 43 42 41 40 39 39 39 40 41 40 40 42 43 43 43 42 41 40 39 39 39 38 37 37 38 39 40 39 38 37 37 36 38 42 46 49 54 58 61 63 67 72 76 78 78 78